Location: Unspecified
(52.0178°N, 0.0000°E)
Time: 02:00:25
(UTC+00:00)

JY1SAT - Visible Passes

Search period start: 19 August 2019 00:00
Search period end: 29 August 2019 00:00
Orbit: 570 x 593 km, 97.7° (Epoch: 17 August)

Date Brightness Start Highest point End Pass type
(mag) Time Alt. Az. Time Alt. Az. Time Alt. Az.
19 Aug ? 21:07:44 27° SE 21:09:35 45° ENE 21:13:31 10° N visible
19 Aug ? 22:44:06 20° WSW 22:45:09 22° W 22:48:24 10° NW visible
20 Aug ? 21:13:16 30° SE 21:14:56 51° ENE 21:18:56 10° N visible
20 Aug ? 22:49:38 18° WSW 22:50:34 20° W 22:53:37 10° NW visible
21 Aug ? 21:18:47 35° SE 21:20:17 57° ENE 21:24:20 10° N visible
21 Aug ? 22:55:10 17° WSW 22:56:00 18° W 22:58:49 10° NW visible
22 Aug ? 19:50:26 10° ENE 19:51:05 10° NE 19:51:43 10° NE visible
22 Aug ? 21:24:19 40° SE 21:25:39 65° ENE 21:29:42 10° N visible
22 Aug ? 23:00:41 15° WSW 23:01:26 16° W 23:03:58 10° NW visible
23 Aug ? 19:55:02 10° ENE 19:56:23 11° NE 19:57:43 10° NE visible
23 Aug ? 21:29:51 45° SE 21:31:00 73° ENE 21:35:06 10° N visible
23 Aug ? 23:06:13 14° W 23:06:51 14° W 23:09:04 10° NW visible
24 Aug ? 19:59:54 10° E 20:01:41 13° NE 20:03:26 10° NNE visible
24 Aug ? 21:35:23 51° SSE 21:36:22 82° ENE 21:40:29 10° NNW visible
24 Aug ? 23:11:45 12° W 23:12:18 12° W 23:14:05 10° WNW visible
25 Aug ? 20:04:52 10° E 20:06:58 14° ENE 20:09:04 10° NNE visible
25 Aug ? 21:40:54 56° SSE 21:41:44 88° W 21:45:51 10° NNW visible
25 Aug ? 23:17:17 11° W 23:17:44 11° W 23:18:55 10° WNW visible
26 Aug ? 20:10:04 11° E 20:12:16 15° ENE 20:14:39 10° NNE visible
26 Aug ? 21:46:26 60° S 21:47:06 78° WSW 21:51:13 10° NNW visible
27 Aug ? 20:15:36 12° E 20:17:35 17° ENE 20:20:12 10° NNE visible
27 Aug ? 21:51:58 61° SSW 21:52:29 69° WSW 21:56:34 10° NNW visible
28 Aug ? 20:21:08 14° E 20:22:53 18° ENE 20:25:43 10° NNE visible
28 Aug ? 21:57:30 58° SW 21:57:51 61° WSW 22:01:55 10° NNW visible
